Flag for Canada Weather past 2 weeks in Bathurst, New Brunswick, Canada

Now
30 °F

Partly sunny.


Feels Like: 23 °F
Forecast: N/A
Wind: 7 mph from Northwest

Location: Bathurst Airport

Current Time: Dec 19, 2014 at 4:34:27 PM

Latest Report: Dec 19, 2014 at 3:00 PM


Visibility: 15 mi

Pressure: 29.79 "Hg

Humidity: 69%

Dew point: 21 °F

Location of BathurstLocation

Historic Weather in Bathurst — Graph

°F

Bathurst temperature yesterday

Maximum temperature yesterday: 32 °F (at 11:00 AM)
Minimum temperature yesterday: 28 °F (at 12:00 AM)
Average temperature yesterday: 29 °F

Past Weeks' High & Low Weather Summary

 TemperatureHumidityPressure
High37 °F (Dec 12, 4:00 PM)100% (Dec 6, 6:00 PM)30.85 "Hg (Dec 6, 6:00 PM)
Low-11 °F (Dec 8, 7:00 AM)40% (Dec 7, 1:00 PM)29.45 "Hg (Dec 18, 3:00 PM)
Average24 °F84%30.11 "Hg
* Reported Dec 4 3:00 PM — Dec 19 3:00 PM, Bathurst, Weather by CustomWeather, © 2014

Note: Actual official high and low records may vary slightly from our data, if they occured in-between our weather recording intervals... More about our weather records

Advertising

Bathurst weather history for previous 24 hours

 ConditionsComfort  
Time TempWeatherWind HumidityBarometerVisibility
3:00 PM
Dec 19
30 °FPartly sunny.7 mph69%29.79 "Hg15 mi
2:00 PM32 °FBroken clouds.5 mph69%29.76 "Hg15 mi
1:00 PM32 °FMostly cloudy.9 mph69%29.75 "Hg15 mi
12:00 PM30 °FMostly cloudy.9 mph75%29.74 "Hg15 mi
11:00 AM28 °FLight snow. More clouds than sun.8 mph86%29.74 "Hg4 mi
10:00 AM27 °FLight snow. Overcast.7 mph93%29.74 "Hg2 mi
9:00 AM27 °FLight snow. Ice fog.7 mph93%29.72 "Hg1 mi
8:00 AM27 °FLight snow. Overcast.7 mph93%29.70 "Hg3 mi
7:47 AM27 °FLight snow. Overcast.7 mph93%29.69 "Hg2 mi
7:00 AM27 °FLight snow. Overcast.8 mph93%29.67 "Hg7 mi
6:00 AM28 °FLight snow. Overcast.7 mph80%29.65 "Hg7 mi
5:00 AM27 °FLight snow. Overcast.9 mph93%29.64 "Hg3 mi
4:00 AM27 °FLight snow. Overcast.12 mph93%29.62 "Hg2 mi
3:00 AM27 °FLight snow. Ice fog.9 mph93%29.62 "Hg1 mi
2:00 AM27 °FLight snow. Overcast.10 mph93%29.59 "Hg2 mi
1:00 AM27 °FLight snow. Ice fog.13 mph93%29.57 "Hg2 mi
12:00 AM27 °FLight snow. Ice fog.10 mph93%29.57 "Hg1 mi
11:00 PM
Dec 18
28 °FSnow. Ice fog.9 mph93%29.55 "Hg1 mi
10:00 PM28 °FSnow. Ice fog.13 mph93%29.54 "Hg1 mi
9:48 PM28 °FSnow. Ice fog.12 mph93%29.54 "Hg1 mi
9:00 PM28 °FLight snow. Ice fog.10 mph93%29.53 "Hg1 mi
8:00 PM28 °FLight snow. Ice fog.13 mph93%29.52 "Hg1 mi
7:00 PM28 °FLight snow. Ice fog.12 mph93%29.51 "Hg1 mi
6:00 PM30 °FLight snow. Ice fog.10 mph93%29.49 "Hg1 mi
5:00 PM30 °FSnow. Ice fog.9 mph93%29.47 "Hg1 mi
4:00 PM30 °FSnow. Ice fog.10 mph93%29.46 "Hg1 mi
Weather by CustomWeather, © 2014

See weather overviewHow to use our weather pages